TimeEST,TemperatureF,Dew PointF,Humidity,Sea Level PressureIn,VisibilityMPH,Wind Direction,Wind SpeedMPH,Gust SpeedMPH,PrecipitationIn,Events,Conditions,WindDirDegrees,DateUTC
12:53 AM,27.0,23.0,85,30.24,10.0,West,5.8,-,N/A,,Clear,260,2013-01-04 05:53:00
1:53 AM,28.0,21.0,75,30.24,10.0,WSW,5.8,-,N/A,,Clear,250,2013-01-04 06:53:00
2:53 AM,27.0,19.9,75,30.26,10.0,SW,4.6,-,N/A,,Clear,230,2013-01-04 07:53:00
3:53 AM,27.0,19.9,75,30.25,10.0,WSW,8.1,-,N/A,,Clear,250,2013-01-04 08:53:00
4:53 AM,27.0,19.9,75,30.25,10.0,WSW,5.8,-,N/A,,Clear,250,2013-01-04 09:53:00
5:53 AM,24.1,18.0,77,30.27,10.0,SW,3.5,-,N/A,,Clear,220,2013-01-04 10:53:00
6:53 AM,28.9,19.9,69,30.27,10.0,West,5.8,-,N/A,,Clear,270,2013-01-04 11:53:00
7:53 AM,25.0,19.9,81,30.27,10.0,West,4.6,-,N/A,,Clear,260,2013-01-04 12:53:00
8:53 AM,30.9,23.0,72,30.28,10.0,WSW,4.6,-,N/A,,Clear,240,2013-01-04 13:53:00
9:53 AM,37.0,24.1,59,30.30,10.0,West,9.2,-,N/A,,Clear,270,2013-01-04 14:53:00
10:53 AM,39.0,21.0,49,30.30,10.0,West,10.4,-,N/A,,Clear,260,2013-01-04 15:53:00
11:53 AM,42.1,21.9,45,30.27,10.0,WSW,13.8,18.4,N/A,,Clear,240,2013-01-04 16:53:00
12:53 PM,45.0,21.0,39,30.22,10.0,WSW,13.8,17.3,N/A,,Clear,250,2013-01-04 17:53:00
1:53 PM,48.0,19.0,32,30.19,10.0,WNW,4.6,-,N/A,,Clear,290,2013-01-04 18:53:00
2:53 PM,48.9,18.0,29,30.19,10.0,West,10.4,-,N/A,,Clear,270,2013-01-04 19:53:00
3:53 PM,48.0,17.1,29,30.19,10.0,WNW,8.1,-,N/A,,Partly Cloudy,290,2013-01-04 20:53:00
4:53 PM,46.0,19.9,35,30.19,10.0,West,4.6,-,N/A,,Mostly Cloudy,260,2013-01-04 21:53:00
5:53 PM,44.1,16.0,32,30.22,10.0,WNW,9.2,-,N/A,,Partly Cloudy,300,2013-01-04 22:53:00
6:53 PM,41.0,16.0,36,30.25,10.0,WNW,12.7,20.7,N/A,,Partly Cloudy,300,2013-01-04 23:53:00
7:53 PM,39.0,18.0,43,30.30,10.0,NW,10.4,-,N/A,,Clear,310,2013-01-05 00:53:00
8:53 PM,37.0,19.0,48,30.29,10.0,WNW,6.9,-,N/A,,Clear,290,2013-01-05 01:53:00
9:53 PM,33.1,19.0,56,30.29,10.0,WSW,4.6,-,N/A,,Clear,240,2013-01-05 02:53:00
10:53 PM,30.0,19.0,64,30.28,10.0,WSW,8.1,-,N/A,,Clear,240,2013-01-05 03:53:00
11:53 PM,30.9,19.0,61,30.27,10.0,West,8.1,-,N/A,,Clear,260,2013-01-05 04:53:00